Погода в Вознесенке

Россия / Томская область     56°43′10″N   83°53′47″E
темп.,
°C
ветер,
м/с
пор.,
м/с
влажн.,
%
обл.,
%
осадки,
мм/ч
давл.,
гПа
погр.,
м
11 мая, вт
вт1101:00+10ссв41060100 0.0 1021310
04:00+6ссв378267 0.0 1020143
07:00+7ссв397751 0.0 1020255
10:00+14ссв474912 0.0 1020675
13:00+18ссв5733100 0.0 10193091
16:00+17ссв464062 0.0 10191831
19:00+17св464217 0.0 10201753
22:00+12ссв3105859 0.0 1021286
12 мая, ср
ср1201:00+9с397086 0.0 1021185
04:00+8ссв277363 0.0 1020138
07:00+10с256890 0.0 1020164
10:00+13с235396 0.0 1020418
13:00+18с213741 0.0 10181610
16:00+17зсз333893 0.0 10171263
19:00+18ю123323 0.0 10162153
22:00+14юз115199 0.0 101723
13 мая, чт
чт1301:00+10ю11577 0.0 101610
04:00+8з115936 0.0 101510
07:00+10ссз1250100 0.0 101584
10:00+15ссз124086 0.0 1015632
13:00+18сз244182 0.2 10141971
16:00+16ссз545260 0.6 10141328
19:00+14сз455683 0.6 10141069
22:00+11ссз26626 0.0 1015374
14 мая, пт
пт1401:00+8з24719 0.0 101480
04:00+7зсз3970100 0.0 1014248
07:00+7ссз7107799 0.1 1015895
10:00+5ссз61057100 0.1 10181368
13:00+8с694158 0.1 10191839
16:00+11ссз68275 0.0 10202237
19:00+11ссз582949 0.0 10212047
22:00+7зсз2545100 0.0 102393
15 мая, сб
сб1501:00+6юз2550100 0.0 102292
04:00+5ююз41172100 0.4 1020469
07:00+7юз7167632 1.1 1017791
10:00+12зюз6136399 0.0 1015718
13:00+19зсз61053100 0.1 10141768
16:00+14ссз497551 0.4 1016766
19:00+10ссв335498 0.0 10201076
22:00